Temp
2 2 2 2 3 2 2 2 3 2 3 2 2 2 1 1 1 0 0 0 -0 -0 -1 -1 -1 -0 -0
1 1 1 1 1 1 2 1 1 1 2 2 0 1 1 0 0 -0 -0 -1 -0 -0 -0 -1 -1 -2 -2
1 1 1 1 1 0 1 0 1 0 1 1 1 1 1 0 -0 -1 -1 -1 -1 -1 -1 -1 -1 -1 -1
1 0 0 -0 -0 0 1 0 1 1 0 1 0 1 -0 -1 -1 -1 -1 -1 -2 -2 -2 -2 -1 -1 -1
0 -0 -1 -0 -0 0 0 -0 0 -0 0 -0 0 -0 -0 -1 -1 -1 -1 -1 -2 -2 -2 -2 -3 -3 -2
-0 -1 -1 -0 -0 -0 -0 -0 -1 -1 -0 -1 -1 -1 -1 -1 -2 -2 -2 -2 -2 -2 -2 -2 -2 -3 -3
-1 -1 -1 -1 -1 -1 -1 -0 -1 -1 -1 -1 -2 -1 -2 -2 -2 -2 -2 -3 -3 -3 -3 -3 -3 -3 -3
-1 -1 -2 -2 -1 -1 -1 -1 -1 -1 -2 -1 -2 -2 -3 -3 -3 -3 -3 -3 -4 -4 -4 -4 -4 -4 -4
-2 -2 -2 -2 -2 -2 -1 -2 -2 -2 -2 -2 -3 -3 -4 -4 -5 -5 -3 -4 -4 -4 -4 -5 -5 -5 -5
-3 -3 -3 -2 -2 -2 -2 -2 -2 -2 -2 -2 -3 -3 -5 -5 -6 -6 -5 -5 -5 -5 -5 -5 -5 -6 -6
-3 -3 -3 -3 -2 -2 -2 -2 -2 -2 -2 -3 -3 -3 -3 -4 -6 -6 -5 -5 -5 -5 -6 -6 -6 -6 -6
-3 -4 -3 -3 -3 -2 -2 -3 -3 -2 -3 -3 -3 -3 -3 -3 -3 -5 -5 -5 -6 -6 -6 -6 -6 -6 -6
-4 -4 -4 -4 -3 -3 -3 -3 -4 -3 -3 -3 -3 -3 -4 -4 -4 -4 -5 -6 -6 -6 -7 -7 -7 -7 -6
-4 -5 -5 -4 -4 -4 -5 -5 -4 -3 -3 -3 -3 -3 -4 -4 -5 -5 -5 -6 -6 -7 -7 -7 -7 -7 -7
-5 -5 -5 -5 -6 -7 -6 -6 -5 -3 -3 -3 -4 -4 -4 -5 -5 -6 -6 -7 -7 -7 -7 -7 -7 -7 -7
-5 -5 -5 -5 -6 -6 -7 -6 -4 -4 -4 -4 -4 -4 -5 -6 -6 -6 -7 -7 -7 -7 -7 -7 -7 -7 -7
-6 -6 -6 -6 -6 -6 -7 -5 -5 -5 -5 -5 -5 -5 -6 -6 -6 -7 -7 -7 -7 -7 -7 -7 -7 -7 -7
Height
1500 1500 1501 1502 1500 1501 1501 1502 1504 1505 1505 1505 1502 1502 1502 1502 1503 1502 1502 1503 1502 1502 1502 1502 1501 1499 1500
1496 1495 1496 1497 1497 1497 1498 1498 1500 1501 1502 1501 1498 1499 1500 1500 1501 1502 1502 1502 1501 1501 1501 1499 1498 1499 1503
1491 1492 1493 1493 1494 1493 1495 1495 1495 1496 1497 1497 1494 1497 1498 1499 1500 1501 1501 1501 1501 1501 1499 1501 1499 1499 1500
1486 1486 1488 1488 1489 1488 1489 1490 1490 1491 1492 1491 1491 1495 1496 1497 1499 1500 1500 1500 1499 1499 1499 1499 1499 1498 1499
1481 1483 1481 1481 1483 1484 1485 1484 1486 1488 1490 1488 1490 1493 1495 1496 1498 1499 1499 1499 1499 1499 1499 1499 1499 1500 1498
1475 1477 1477 1476 1478 1478 1481 1481 1483 1485 1486 1488 1490 1491 1493 1495 1497 1497 1498 1498 1498 1498 1497 1497 1497 1496 1496
1470 1470 1472 1473 1473 1473 1476 1477 1479 1481 1483 1485 1488 1490 1492 1493 1495 1496 1496 1496 1496 1496 1496 1496 1496 1495 1495
1466 1467 1468 1468 1470 1470 1472 1473 1475 1478 1481 1484 1487 1489 1491 1492 1493 1494 1495 1495 1495 1495 1496 1495 1495 1494 1494
1461 1462 1462 1463 1465 1465 1466 1469 1472 1475 1478 1481 1484 1487 1490 1491 1492 1492 1493 1494 1494 1494 1494 1494 1494 1494 1494
1456 1456 1457 1457 1459 1460 1462 1465 1468 1472 1476 1480 1482 1485 1489 1490 1491 1491 1492 1492 1493 1493 1493 1493 1494 1494 1494
1453 1454 1455 1455 1456 1457 1459 1463 1466 1469 1472 1476 1479 1482 1485 1486 1488 1489 1490 1491 1492 1492 1493 1493 1493 1494 1494
1452 1453 1453 1453 1454 1455 1458 1461 1464 1468 1471 1474 1478 1481 1483 1485 1486 1488 1489 1490 1490 1491 1492 1492 1493 1494 1494
1451 1452 1452 1453 1453 1455 1458 1461 1464 1468 1471 1474 1478 1480 1482 1484 1485 1485 1486 1488 1489 1490 1491 1492 1493 1494 1495
1450 1451 1452 1454 1455 1456 1459 1463 1466 1469 1471 1474 1477 1479 1481 1482 1483 1484 1485 1486 1487 1488 1490 1491 1492 1493 1494
1450 1452 1453 1454 1456 1459 1462 1464 1467 1470 1472 1474 1476 1478 1479 1481 1482 1482 1483 1485 1486 1488 1489 1491 1492 1493 1493
1451 1452 1454 1455 1457 1459 1462 1466 1468 1470 1472 1473 1475 1477 1478 1480 1480 1481 1482 1484 1486 1487 1489 1490 1491 1492 1492
1452 1454 1455 1457 1458 1460 1462 1466 1468 1470 1472 1473 1475 1476 1477 1478 1479 1480 1482 1483 1485 1486 1488 1488 1489 1490 1490
Wind_Speed
19 17 15 16 15 13 11 14 16 15 15 13 13 13 7 5 3 2 2 0 1 3 3 4 6 8 8
17 15 12 12 16 16 14 16 22 20 16 13 14 9 6 5 4 2 3 3 3 4 4 1 4 8 10
20 17 17 18 19 22 22 21 20 21 22 17 17 15 12 7 3 4 3 3 3 3 1 1 2 1 1
24 22 24 21 23 24 26 27 23 21 11 11 17 15 9 4 2 2 2 2 2 1 1 1 0 1 1
28 26 26 22 24 22 25 26 25 15 12 27 24 16 10 5 3 2 2 2 1 1 1 1 1 0 1
24 24 23 21 19 22 26 25 13 21 21 17 17 13 12 4 3 3 3 2 2 3 3 3 3 3 3
19 20 19 19 22 21 28 26 20 23 27 27 22 13 9 8 5 5 3 3 3 3 4 4 4 4 3
21 20 21 20 16 22 22 22 22 23 24 20 17 12 11 8 7 6 2 2 3 3 3 4 4 3 1
19 20 21 21 21 20 20 21 24 24 26 21 19 16 13 9 6 9 4 3 4 3 4 4 3 1 1
14 14 16 16 17 17 21 22 25 22 24 20 22 21 13 13 11 11 6 4 3 3 4 3 1 1 2
9 10 11 12 16 17 17 17 22 20 20 22 21 22 12 10 16 11 7 5 4 3 3 1 1 2 2
9 10 11 11 11 13 14 13 17 15 10 20 15 19 16 10 7 10 8 6 5 3 2 2 2 3 3
10 9 9 9 11 14 15 16 14 9 10 14 10 13 13 10 8 7 7 6 5 4 4 4 4 3 2
9 11 13 15 15 16 15 12 10 10 12 12 9 10 11 9 7 6 7 5 7 6 6 6 5 3 2
12 14 17 18 16 14 13 12 10 11 12 10 9 9 9 7 7 7 7 7 6 6 6 6 4 4 3
13 14 15 16 16 16 15 11 10 10 9 8 7 7 7 6 6 7 8 8 7 7 6 5 5 4 4
11 11 8 9 12 15 14 10 10 9 8 6 6 5 5 5 6 8 9 8 8 7 6 5 5 4 5
Wind_Direction
269 268 261 265 281 293 262 259 255 245 257 258 262 266 271 262 249 169 117 128 87 106 115 139 162 150 117
268 263 253 270 283 277 267 263 252 247 262 254 259 249 241 211 271 269 292 299 287 315 327 14 134 145 134
258 258 265 270 274 277 277 273 268 247 254 279 216 229 201 221 264 291 305 309 282 283 288 155 131 124 137
255 262 276 277 276 273 267 263 237 240 253 213 199 202 205 208 229 236 297 319 308 173 136 134 226 291 262
271 270 278 273 270 268 263 226 240 246 199 171 182 180 189 209 234 234 310 305 248 266 314 337 359 280 329
268 270 262 265 274 256 235 232 223 183 185 189 208 193 188 212 252 254 303 262 274 292 309 318 324 327 328
259 261 269 265 264 249 229 239 231 203 209 189 186 195 189 191 226 265 283 264 278 293 312 322 325 327 328
255 266 261 258 256 253 260 241 216 201 193 187 188 195 186 203 241 271 236 242 272 298 314 322 324 330 328
262 255 255 253 252 252 237 233 205 199 200 203 191 186 189 208 230 272 259 251 280 299 319 328 329 352 115
265 264 259 255 235 231 235 224 210 201 206 203 194 191 182 203 225 245 264 260 270 302 315 326 329 153 153
268 261 251 242 236 225 217 214 212 211 205 203 201 201 200 205 222 232 244 246 264 278 290 277 165 164 167
257 247 240 231 221 206 200 205 207 201 197 196 202 208 214 215 212 220 227 239 244 247 222 189 178 164 147
240 227 207 192 189 183 171 161 146 148 172 187 196 206 213 226 234 225 221 227 229 216 196 189 179 170 167
219 199 179 159 149 144 132 139 155 164 176 188 197 195 210 223 224 220 210 209 205 199 195 193 197 206 229
199 186 172 156 143 139 154 156 163 175 176 176 180 189 200 208 218 204 198 199 191 195 198 199 208 222 237
189 185 174 166 167 168 155 161 175 175 172 170 176 187 190 186 192 191 189 190 193 196 203 211 219 235 256
186 177 183 195 190 177 154 175 174 172 165 166 168 174 195 194 187 191 188 190 192 199 209 227 251 261 259